www.pogodaiklimat.ru

Погода и климат >> Архив погоды >> Доминиканская Республика >> Пуэрто-Плата


ПОГОДА в Пуэрто-Плате

  • Прогноз погоды в Пуэрто-Плате
  • Монитор погоды в Пуэрто-Плате

АРХИВ ПОГОДЫ в Пуэрто-Плате

Время (UTC), дата Ветер
(напр.,м/с)
 
Видим.   Явления Облачность Т
(С)
Тd
(С)
f
(%)
Тe
(С)
Тes
(С)
Комфортность P
(гПа)
Po
(гПа)
Тmin
(С)
Tmax
(С)
R
(мм)
R24
(мм)
S
(см)
21 16.09 В 6 16 км 6/6 540 м
[Cb cap]
+30.0 +25.0 75 +43 +44 опасность
перегрева
1013.0 1012.4
00 17.09 штиль 0 16 км 6/6 540 м
[Cb cap]
+29.2 +25.2 79 +42 +42 опасность
перегрева
1014.2 1013.6 +34.8
03 17.09 штиль 0 16 км 5/5 540 м
[Cu med, cong]
+25.4 +22.6 85 +33 +33 очень
душно
1013.8 1013.2
06 17.09 штиль 0 16 км 4/4 540 м
[Cu med, cong]
+24.2 +22.8 92 +32 +32 очень
душно
1012.8 1012.2 +24.2 +34.8
09 17.09 штиль 0 16 км 3/3 540 м
[Cu med, cong]
+24.8 +22.0 84 +32 +32 очень
душно
1011.8 1011.2
12 17.09 штиль 0 16 км 3/3 600 м
[Cu med, cong]
+28.6 +23.8 75 +39 +41 очень
душно
1013.0 1012.4 +23.5 +34.8
15 17.09 ЮВ 5 16 км 3/3 750 м
[Cu med, cong]
+34.2 +24.4 57 +47 +53 опасность
перегрева
1014.2 1013.6
18 17.09 В 8 16 км 4/4 750 м
[Cu med, cong]
+36.8 +24.2 49 +49 +51 опасность
перегрева
1011.8 1011.2 +37.2
21 17.09 В 6 16 км 8/5 540 м
[Cb cap Cs]
+31.8 +24.4 65 +44 +45 опасность
перегрева
1010.2 1009.6
00 18.09 В 3 16 км 8/3 600 м
[Cu med, cong Cs]
+29.6 +24.3 73 +41 +41 опасность
перегрева
1011.1 1010.5 +23.5 +37.7
03 18.09 ЮВ 4 16 км 5/3 600 м
[Cu med, cong Ci]
+28.5 +22.3 69 +37 +37 очень
душно
1011.8 1011.2
06 18.09 штиль 0 16 км 4/3 600 м
[Cu med, cong Ci]
+26.0 +22.1 79 +34 +34 очень
душно
1011.0 1010.4 +23.5 +37.7
09 18.09 штиль 0 16 км 4/3 540 м
[Cu med, cong Ci]
+25.0 +22.9 88 +33 +33 очень
душно
1009.9 1009.3
12 18.09 штиль 0 16 км 4/3 600 м
[Cu med, cong Ci]
+27.2 +23.0 78 +36 +38 очень
душно
1010.8 1010.2 +25.0 +37.7
15 18.09 СВ 4 16 км 8/3 600 м
[Cu med, cong Ci]
+31.0 +24.1 67 +43 +49 опасность
перегрева
1010.7 1010.1
18 18.09 СВ 5 16 км 6/4 600 м
[Cb cap Ci]
+32.6 +25.3 66 +47 +52 опасность
перегрева
1009.8 1009.2 +25.0 +33.7
21 18.09 ЮЗ 5 8000 м гроза, ливневой дождь 9/8 480 м
[Cb cap As op]
+24.2 +23.1 94 +32 +32 очень
душно
1008.9 1008.3 4
00 19.09 штиль 0 16 км {гроза, дождь} 9/5 540 м
[Cu med, cong Cs]
+25.4 +24.0 92 +35 +35 очень
душно
1009.5 1008.9 +24.6 +33.7
06 19.09 штиль 0 16 км 6/6 540 м
[Cu med, cong]
+24.6 +23.8 95 +33 +33 очень
душно
1008.8 1008.2 +24.5 +33.7
09 19.09 штиль 0 16 км 5/5 540 м
[Cu med, cong]
+24.0 +23.1 95 +32 +32 очень
душно
1007.3 1006.7
12 19.09 штиль 0 16 км 6/3 540 м
[Cu med, cong Ac As]
+26.0 +23.8 88 +36 +37 очень
душно
1009.6 1009.0 +24.6 +33.7
15 19.09 ЮВ 3 16 км 5/1 600 м
[Cu med, cong Ac As]
+32.0 +23.7 62 +43 +52 опасность
перегрева
1009.8 1009.2
18 19.09 В 8 16 км 8/6 750 м
[Cu med, cong Cs]
+32.8 +23.4 58 +44 +45 опасность
перегрева
1008.6 1008.0 +24.6 +34.9
21 19.09 ЮВ 5 16 км 9/8 660 м
[Cb cap Cs]
+30.2 +24.6 72 +43 +43 опасность
перегрева
1007.7 1007.1
00 20.09 ЮВ 3 16 км 9/6 540 м
[Cu Sc Cs]
+27.8 +23.2 76 +37 +37 очень
душно
1010.0 1009.4 +24.6 +34.9
03 20.09 штиль 0 16 км 9/6 500 м
[Cu Sc Cs]
+26.2 +23.5 85 +36 +36 очень
душно
1010.8 1010.2
06 20.09 штиль 0 16 км 8/5 480 м
[Cu Sc Cs]
+25.5 +23.2 87 +34 +34 очень
душно
1010.5 1009.9 +24.6 +34.9
09 20.09 штиль 0 16 км 8/4 480 м
[Cu med, cong Cs]
+24.8 +22.6 88 +33 +33 очень
душно
1009.5 1008.9
12 20.09 штиль 0 16 км 9/4 500 м
[Cb cap Ac As Cs]
+26.6 +23.6 84 +36 +37 очень
душно
1011.1 1010.5 +24.5 +34.9
15 20.09 ЮВ 8 16 км 8/4 750 м
[Cu med, cong Cs]
+31.7 +24.1 64 +44 +45 опасность
перегрева
1011.7 1011.1
18 20.09 В 10 16 км 9/5 720 м
[Cb cap Cs]
+33.0 +25.7 66 +48 +49 опасность
перегрева
1010.6 1010.0 +24.5 +34.6
21 20.09 В 6 16 км 9/5 600 м
[Cb cap Cs]
+31.8 +26.1 72 +48 +48 опасность
перегрева
1009.8 1009.2
00 21.09 В 3 16 км 9/4 540 м
[Cb cap Cs]
+27.7 +25.8 89 +41 +41 опасность
перегрева
1011.2 1010.6 +24.5 +34.6
03 21.09 В 3 16 км 8/3 500 м
[Cu med, cong Cs]
+27.0 +25.0 89 +39 +39 очень
душно
1012.7 1012.1
06 21.09 штиль 0 16 км 5/3 500 м
[Cu med, cong Ci]
+24.3 +23.5 95 +33 +33 очень
душно
1012.3 1011.7 +24.4 +34.6
09 21.09 штиль 0 16 км 4/1 500 м
[Cu med, cong Ci]
+24.0 +23.0 94 +32 +32 очень
душно
1011.7 1011.1
12 21.09 ЮВ 3 16 км 4/1 600 м
[Cu med, cong Ci fib]
+26.4 +24.1 87 +37 +38 очень
душно
1012.5 1011.9 +23.9 +34.6
15 21.09 ЮВ 5 16 км 5/3 750 м
[Cu med, cong Ci ing]
+34.2 +24.5 57 +47 +52 опасность
перегрева
1013.0 1012.4
18 21.09 СВ 8 16 км 5/4 750 м
[Cu med, cong Ci]
+34.5 +24.5 56 +47 +49 опасность
перегрева
1011.5 1010.9 +23.9 +35.3
00 22.09 штиль 0 8000 м слаб. дождь 8/8 480 м
[Cb cap]
+29.2 +25.2 79 +42 +42 опасность
перегрева
1011.6 1011.0 +23.9 +35.3 0.0
03 22.09 штиль 0 16 км {дождь} 9/8 480 м
[Cb cap As op]
+25.0 +23.9 94 +34 +34 очень
душно
1013.4 1012.8 41
06 22.09 штиль 0 16 км 6/6 480 м
[Cb cap As op]
+24.8 +23.0 90 +33 +33 очень
душно
1012.5 1011.9 +23.9 +35.3
09 22.09 штиль 0 16 км 5/5 480 м
[Cu Sc]
+24.2 +22.5 90 +32 +32 очень
душно
1011.8 1011.2
12 22.09 штиль 0 16 км 5/1 540 м
[Cu med, cong Ci]
+26.4 +24.8 91 +38 +40 очень
душно
1012.3 1011.7 +23.8 +35.3
15 22.09 СВ 4 16 км 5/3 750 м
[Cu med, cong Ci]
+31.1 +24.6 68 +44 +51 опасность
перегрева
1013.3 1012.7
18 22.09 СВ 5 16 км 6/3 720 м
[Cu med, cong Ci]
+31.0 +26.9 79 +48 +54 опасность
перегрева
1012.1 1011.5 +23.8 +32.0
21 22.09 В 5 16 км 8/4 720 м
[Cu med, cong Ci]
+31.8 +26.4 73 +48 +49 опасность
перегрева
1011.3 1010.7
03 23.09 штиль 0 16 км гроза без осадков 8/4 480 м
[Cb cap Ci]
+24.8 +23.4 92 +33 +33 очень
душно
1013.5 1012.9
06 23.09 штиль 0 16 км 6/3 540 м
[Cu med, cong Ci]
+25.2 +23.3 89 +34 +34 очень
душно
1012.7 1012.1 +23.8 +32.2
09 23.09 штиль 0 16 км 6/3 540 м
[Cu med, cong Ci]
+24.8 +23.1 90 +33 +33 очень
душно
1011.7 1011.1
12 23.09 штиль 0 16 км 8/4 600 м
[Cu med, cong Ci]
+27.2 +25.3 89 +39 +41 очень
душно
1012.1 1011.5 +23.4 +28.2

 

Местоположение метеостанции Пуэрто-Плата (Доминиканская Республика): широта 19.75 долгота -70.55 высота над уровнем моря 5 м.

В архиве по умолчанию представлена погода в Пуэрто-Плате за последнюю неделю. Архивные данные за месяц целиком и за предыдущие месяцы, начиная с января 2011 года, Вы можете получить, выбрав интересующий диапазон дат из раскрывающегося списка и нажав кнопку "Ввод!".


*Определитесь, кто Вы:
робот инопланетянин человек

Внимание! Время в таблицах - всемирное. Для получения местного времени необходимо прибавить поправку, которая равна -4 ч.

Смотрите также архив погоды в соседних городах и на ближайших метеорологических станциях:

Погода в Сантьяго (Доминиканская Республика) (37 км)
Погода в Сабана де ла Мар (Доминиканская Республика) (145 км)
Погода в Санто-Доминго (Доминиканская Республика) (163 км)
Погода в Лас Америкас (Доминиканская Республика) (174 км)
Погода в Бараоне (Доминиканская Республика) (182 км)
Погода в Ла Романа аэропорту (Доминиканская Республика) (224 км)
Погода в Пунта-Кане (Доминиканская Республика) (265 км)
Погода в Пунта-де-Маиси (Куба) (380 км)
Погода в Пунта Лукреция (Куба) (547 км)
Погода в Кабо-Луреции (Куба) (548 км)

Пояснения к столбцам:

Ветер - указаны скорость ветра в м/с - средняя за 10 мин, порывы в срок и между сроками (в фигурных скобках) и направление, откуда дует ветер: С - северный, СВ - северо-восточный, В - восточный, ЮВ - юго-восточный, Ю - южный, ЮЗ - юго-западный, З - западный, СЗ - северо-западный.
Видимость - горизонтальная дальность видимости в метрах или километрах. При видимости от 1 до 10 км при отсутствии осадков обычно наблюдается дымка, при ухудшении видимости до 1 км и менее - туман. В сухую погоду видимость может ухудшаться дымом, пылью или мглою.
Явления - указаны атмосферные явления, наблюдавшиеся в срок или в последний час перед сроком; фигурными скобками обозначены явления, наблюдавшиеся между сроками (за 1-3 часа до срока); квадратными скобками обозначены град или гололедные отложения с указанием их диаметра в мм.
Облачность - указаны через наклонную черту общая и нижняя облачность в баллах и высота нижней границы облаков в метрах; квадратными скобками обозначены формы облаков: Ci - перистые, Cs - перисто-слоистые, Cc - перисто-кучевые, Ac - высококучевые, As - высокослоистые, Sc - слоисто-кучевые, Ns - слоисто-дождевые, Cu - кучевые, Cb - кучево-дождевые. Подробнее классификацию облаков см. в Атласе облаков (PDF).
T - Температура воздуха - температура, измеренная на высоте 2 м над землей.
Td - Температура точки росы - температура, при понижении до которой содержащийся в воздухе водяной пар достигнет насыщения.
f - Относительная влажность воздуха - влажноcть воздуха, измеренная на высоте 2 м над землей.
Te - Эффективная температура - температура, которую ощущает одетый по сезону человек в тени. Характеристика душности погоды. При расчете учитывается влияние влажности воздуха и скорости ветра на теплоощущения человека.
Tes - Эффективная температура на солнце - температура, которую ощущает человек, с поправкой на солнечный нагрев. Характеристика знойности погоды. Зависит от высоты солнца над горизонтом, облачности и скорости ветра. Ночью, в пасмурную погоду, а также при ветре 12 м/с и более поправка равна нулю.
P - Атмосферное давление - приведенное к уровню моря атмосферное давление.
Po - Атмосферное давление - измеренное на уровне метеостанции атмосферное давление.
Tmin - Минимальная температура - минимум температуры воздуха на высоте 2 м над землей.
Tmax - Максимальная температура - максимум температуры воздуха на высоте 2 м над землей.
R - Количество осадков - Количество выпавших осадков за период времени, мм. При наведении курсора мыши на число - период времени, за который выпало указанное количество осадков.
R24 - Количество осадков - Количество выпавших осадков за 24 часа, мм.
S - Снежный покров - Высота снежного покрова, см. При наведении курсора мыши на число - состояние снежного покрова и степень покрытия местности в баллах.